Theta_e
327 329 334 334 336 337 339 340 340 340 341 341 341 342 342 342 342 341 342 340 340 340 340 338 334 332 336
319 321 328 330 330 329 328 329 330 333 335 335 334 338 341 341 341 340 339 339 339 339 337 335 331 330 335
315 314 320 321 321 320 320 322 325 333 336 335 333 333 338 338 339 339 338 337 335 334 334 331 328 335 333
310 315 316 316 317 318 318 317 318 320 325 330 328 328 331 332 335 337 337 334 330 333 334 329 334 333 333
312 312 313 314 315 317 316 318 319 318 320 327 333 334 332 327 333 335 335 336 335 333 333 332 332 333 332
310 310 311 311 312 312 314 314 316 318 319 318 319 317 330 332 330 333 336 336 334 333 332 332 331 332 331
308 309 309 309 309 310 311 313 314 314 315 318 317 315 315 318 329 329 330 331 333 332 332 331 330 331 332
306 307 307 308 308 309 310 311 311 312 312 314 315 316 315 313 312 314 327 328 328 330 331 330 329 329 331
304 305 306 306 306 307 307 309 309 310 310 310 311 314 316 314 313 311 310 327 326 327 327 329 329 330 331
302 303 303 303 304 304 304 305 306 307 308 308 308 309 314 314 313 313 309 308 324 325 325 325 328 329 329
301 301 301 301 301 301 302 303 304 305 305 305 306 307 309 312 312 312 310 308 308 321 324 324 324 326 327
299 299 299 299 299 299 299 300 300 300 301 302 303 305 307 308 312 312 309 309 308 308 313 322 323 324 325
296 295 295 294 295 296 297 298 297 298 298 299 299 301 304 305 307 310 310 308 307 307 305 315 319 321 321
294 293 293 293 293 294 294 295 295 296 297 297 297 298 300 301 303 305 308 307 307 308 304 308 305 304 303
292 292 292 292 292 292 293 293 294 295 295 296 296 298 298 299 299 301 302 303 303 306 307 305 304 306 305
291 290 289 288 288 290 291 292 292 293 293 294 294 295 295 296 297 300 300 302 305 303 306 308 310 308 304
Wind_Speed
10 9 8 9 11 12 11 12 14 13 13 14 14 15 17 18 19 17 16 15 16 15 14 13 11 12 14
7 11 11 10 12 14 18 14 9 10 12 11 12 13 17 18 19 17 14 15 13 13 13 12 13 12 16
7 7 6 9 10 9 8 10 11 4 6 9 11 14 15 19 20 19 18 17 14 12 11 12 14 11 15
5 7 7 7 7 7 6 6 2 4 6 9 9 11 11 14 20 20 20 18 14 12 10 11 10 13 12
6 4 4 4 4 4 6 6 6 3 3 4 4 6 4 7 8 13 13 12 15 12 12 12 15 15 10
5 5 5 4 5 4 5 6 5 4 5 3 2 5 4 4 6 9 8 13 16 17 15 15 16 13 10
5 4 5 6 5 7 6 6 5 5 5 5 4 3 3 4 6 8 7 10 14 16 16 16 15 15 16
6 7 6 6 7 7 7 8 10 7 7 6 6 4 4 3 5 6 10 10 10 12 16 17 17 15 16
8 8 8 7 8 8 9 11 12 11 10 10 8 7 6 6 7 4 8 12 11 11 15 16 14 17 14
9 9 8 9 9 10 10 10 13 13 13 12 10 9 8 6 7 6 6 8 11 13 12 13 13 14 17
10 10 10 11 10 10 10 11 13 13 14 13 12 11 11 9 9 8 7 6 9 9 14 13 13 13 16
9 9 9 9 9 9 9 10 13 11 13 12 12 13 12 10 10 10 11 8 9 10 9 14 14 14 13
9 9 9 9 10 9 9 13 13 12 13 13 11 12 12 13 14 14 12 12 9 7 7 12 9 13 16
8 8 9 9 9 10 10 12 13 13 13 12 12 12 13 12 15 15 15 11 10 7 7 9 4 3 5
11 9 8 9 9 10 10 9 10 12 13 14 14 13 13 12 12 14 15 18 13 10 15 8 4 7 5
12 10 12 11 12 10 11 11 11 13 14 14 15 15 15 12 14 13 13 15 14 14 8 13 17 3 4
Wind_Direction
49 29 36 30 26 16 342 274 258 255 248 247 245 241 234 229 230 234 206 190 192 180 180 187 169 184 207
38 31 42 40 36 47 41 11 318 269 273 253 251 240 232 236 228 224 206 198 200 187 188 176 168 190 217
37 32 46 44 50 43 28 21 10 309 271 274 271 259 238 236 224 218 207 202 194 194 193 168 163 207 214
47 41 42 43 39 37 30 13 334 310 10 302 256 274 266 243 222 212 206 198 195 206 198 169 201 213 211
27 13 21 19 15 17 19 8 355 354 330 328 295 223 220 248 245 221 213 212 209 212 208 200 203 209 215
6 11 1 357 351 346 345 349 343 340 339 328 324 340 290 245 241 247 219 214 219 216 214 205 207 205 214
5 346 336 331 325 322 309 308 310 309 309 313 307 299 278 338 274 223 239 232 220 220 214 206 202 205 209
341 331 320 316 315 306 299 296 293 284 282 282 279 263 257 213 255 311 259 220 231 222 218 211 206 206 204
332 330 320 311 305 297 294 291 285 279 272 271 269 257 242 234 237 255 286 254 215 217 227 211 205 203 208
331 318 305 302 299 294 288 285 282 279 275 273 266 262 256 236 234 229 221 263 258 209 210 217 208 204 201
323 311 305 302 296 295 293 286 285 284 280 272 268 267 264 256 242 238 233 217 254 262 211 209 203 205 209
316 309 303 298 292 295 291 287 289 284 280 276 272 270 268 261 251 238 238 231 237 239 295 221 208 201 205
322 315 309 304 300 292 284 285 283 283 281 277 273 272 267 259 256 245 245 238 232 225 244 269 210 210 199
315 312 299 297 290 291 287 280 279 280 278 274 269 268 267 268 263 257 246 244 243 218 222 243 262 224 272
315 308 300 293 284 282 281 285 280 280 281 279 274 268 266 263 262 257 253 244 247 232 219 218 216 225 166
315 306 303 297 295 296 295 290 287 279 274 275 273 269 265 263 259 259 254 253 245 238 224 221 239 159 225